Cork, Ireland

12:38 PM IST on August 27, 2016 (GMT +0100)
Cork

Weather History for EICK - July, 2013

Change the Weather History Date:

Monday, July 29, 2013

  Actual Average Record
Temperature  
Mean Temperature 61 °F -  
Max Temperature 68 °F 65 °F 73 °F (2001)
Min Temperature 54 °F 52 °F 47 °F (2012)
Degree Days  
Heating Degree Days 4    
Growing Degree Days 11 (Base 50)    
Moisture  
Dew Point 54 °F    
Average Humidity 82    
Maximum Humidity 100    
Minimum Humidity 56    
Precipitation  
Precipitation 0.00 in 0.12 in - ()
Sea Level Pressure  
Sea Level Pressure 29.74 in    
Wind  
Wind Speed 9 mph ()    
Max Wind Speed 18 mph    
Max Gust Speed -    
Visibility 6.5 miles    
Events Rain    
Averages and records for this station are not official NWS values.
T = Trace of Precipitation, MM = Missing Value Source: Averaged Metar Reports

Daily Weather History Graph

Daily Weather History Graph

Search for Another Location

Airport or City:

Trip Planner

Search our weather history database for the weather conditions in past years. The results will help you decide how hot, cold, wet, or windy it might be!

Date:

Astronomy

Jul. 29, 2013 Rise Set
Actual Time 5:51 AM IST 9:27 PM IST
Civil Twilight 5:10 AM IST 10:09 PM IST
Nautical Twilight 4:12 AM IST 11:06 PM IST
Astronomical Twilight 2:45 AM IST 12:30 AM IST
Moon No Moon Rise 2:24 PM IST (7/29)
Length of Visible Light 16h 59m
Length of Day
15h 35m
Waning Gibbous, 53% of the Moon is Illuminated
Jul 29
Waning Gibbous
Jul 29
Last Quarter
Aug 6
New
Aug 14
First Quarter
Aug 21
Full

Hourly Weather History & Observations

Time (IST) Temp. Dew Point Humidity Pressure Visibility Wind Dir Wind Speed Gust Speed Precip Events Conditions
12:00 AM 55.4 °F 55.4 °F 100% 29.62 in 6.2 mi WSW 6.9 mph - N/A   Scattered Clouds
12:30 AM 55.4 °F 55.4 °F 100% 29.62 in 6.2 mi SW 5.8 mph - N/A   Partly Cloudy
1:00 AM 55 °F 55 °F 100% 29.65 in 12 mi SW 6.7 mph - -   Partly Cloudy
1:00 AM 55.4 °F 55.4 °F 100% 29.62 in 6.2 mi SW 5.8 mph - N/A   Partly Cloudy
1:30 AM 55.4 °F 55.4 °F 100% 29.65 in 6.2 mi SSW 4.6 mph - N/A   Partly Cloudy
2:00 AM 57.2 °F 57.2 °F 100% 29.62 in 6.2 mi SSW 4.6 mph - N/A   Mostly Cloudy
2:30 AM 57.2 °F 57.2 °F 100% 29.65 in 6.2 mi SSW 5.8 mph - N/A   Mostly Cloudy
3:00 AM 57.2 °F 57.2 °F 100% 29.65 in 6.2 mi SSW 4.6 mph - N/A Rain Light Rain Showers
3:30 AM 57.2 °F 57.2 °F 100% 29.65 in 6.2 mi SSW 4.6 mph - N/A   Mostly Cloudy
4:00 AM 57.2 °F 57.2 °F 100% 29.65 in 6.2 mi SSW 5.8 mph - N/A   Mostly Cloudy
4:30 AM 55.4 °F 55.4 °F 100% 29.65 in 1.4 mi North - - N/A   Mostly Cloudy
5:00 AM 55.4 °F 55.4 °F 100% 29.65 in 6.2 mi SW 8.1 mph - N/A   Scattered Clouds
5:30 AM 55.4 °F 55.4 °F 100% 29.65 in 6.2 mi SW 8.1 mph - N/A   Scattered Clouds
6:00 AM 57.2 °F 57.2 °F 100% 29.65 in 6.2 mi SSW 6.9 mph - N/A   Scattered Clouds
6:30 AM 57.2 °F 57.2 °F 100% 29.65 in 6.2 mi SW 9.2 mph - N/A   Partly Cloudy
7:00 AM 57 °F 57 °F 100% 29.68 in 19 mi SW 8.9 mph - - Rain Light Rain Showers
7:00 AM 57.2 °F 57.2 °F 100% 29.65 in 6.2 mi SW 9.2 mph - N/A   Partly Cloudy
7:30 AM 59.0 °F 57.2 °F 94% 29.68 in 6.2 mi SW 11.5 mph - N/A   Partly Cloudy
8:00 AM 59.0 °F 59.0 °F 100% 29.68 in 6.2 mi SW 12.7 mph - N/A   Partly Cloudy
8:30 AM 60.8 °F 59.0 °F 94% 29.68 in 6.2 mi SW 12.7 mph - N/A   Partly Cloudy
9:00 AM 60.8 °F 59.0 °F 94% 29.71 in 6.2 mi WSW 11.5 mph - N/A   Partly Cloudy
9:30 AM 62.6 °F 57.2 °F 82% 29.71 in 6.2 mi WSW 11.5 mph - N/A   Scattered Clouds
10:00 AM 64.4 °F 57.2 °F 77% 29.71 in 6.2 mi WSW 16.1 mph - N/A   Mostly Cloudy
10:30 AM 64.4 °F 57.2 °F 77% 29.71 in 6.2 mi WSW 13.8 mph - N/A   Scattered Clouds
11:00 AM 64.4 °F 53.6 °F 68% 29.74 in 6.2 mi WSW 15.0 mph - N/A   Mostly Cloudy
11:30 AM 64.4 °F 57.2 °F 77% 29.74 in 6.2 mi WSW 16.1 mph - N/A   Partly Cloudy
12:00 PM 64.4 °F 53.6 °F 68% 29.74 in 6.2 mi WSW 17.3 mph - N/A   Partly Cloudy
12:30 PM 66.2 °F 55.4 °F 68% 29.74 in 6.2 mi WSW 18.4 mph - N/A   Partly Cloudy
1:00 PM 63 °F 53 °F 63% 29.75 in 31 mi WSW 15.7 mph - -   Partly Cloudy
1:00 PM 62.6 °F 53.6 °F 72% 29.74 in 6.2 mi WSW 16.1 mph - N/A   Scattered Clouds
1:30 PM 66.2 °F 55.4 °F 68% 29.74 in 6.2 mi SW 15.0 mph - N/A   Scattered Clouds
2:00 PM 64.4 °F 51.8 °F 64% 29.77 in 6.2 mi West 16.1 mph - N/A   Scattered Clouds
2:30 PM 64.4 °F 51.8 °F 64% 29.77 in 6.2 mi West 16.1 mph - N/A   Scattered Clouds
3:00 PM 66.2 °F 50.0 °F 56% 29.77 in 6.2 mi West 16.1 mph - N/A   Scattered Clouds
3:30 PM 68.0 °F 51.8 °F 56% 29.77 in 6.2 mi WSW 16.1 mph - N/A   Scattered Clouds
4:00 PM 66.2 °F 51.8 °F 60% 29.80 in 6.2 mi WSW 15.0 mph - N/A   Scattered Clouds
4:30 PM 66.2 °F 51.8 °F 60% 29.80 in 6.2 mi WSW 18.4 mph - N/A   Partly Cloudy
5:00 PM 66.2 °F 51.8 °F 60% 29.80 in 6.2 mi WSW 16.1 mph - N/A   Scattered Clouds
5:30 PM 66.2 °F 50.0 °F 56% 29.80 in 6.2 mi WSW 16.1 mph - N/A   Partly Cloudy
6:00 PM 62.6 °F 51.8 °F 68% 29.83 in 6.2 mi WSW 18.4 mph - N/A   Scattered Clouds
6:30 PM 62.6 °F 51.8 °F 68% 29.83 in 6.2 mi WSW 15.0 mph - N/A   Mostly Cloudy
7:00 PM 60.8 °F 50.0 °F 68% 29.83 in 6.2 mi WSW 11.5 mph - N/A   Scattered Clouds
7:30 PM 60.8 °F 50.0 °F 68% 29.86 in 6.2 mi WSW 12.7 mph - N/A   Mostly Cloudy
8:00 PM 60.8 °F 50.0 °F 68% 29.86 in 6.2 mi WSW 12.7 mph - N/A   Scattered Clouds
8:30 PM 59.0 °F 51.8 °F 77% 29.86 in 6.2 mi SW 13.8 mph - N/A   Mostly Cloudy
9:00 PM 59.0 °F 50.0 °F 72% 29.86 in 6.2 mi SW 12.7 mph - N/A   Mostly Cloudy
9:30 PM 57.2 °F 50.0 °F 77% 29.86 in 6.2 mi WSW 9.2 mph - N/A   Mostly Cloudy
10:00 PM 55.4 °F 51.8 °F 88% 29.89 in 6.2 mi SW 9.2 mph - N/A   Mostly Cloudy
10:30 PM 55.4 °F 51.8 °F 88% 29.89 in 6.2 mi WSW 5.8 mph - N/A   Mostly Cloudy
11:00 PM 55.4 °F 51.8 °F 88% 29.89 in 6.2 mi SW 6.9 mph - N/A   Mostly Cloudy
11:30 PM 55.4 °F 53.6 °F 94% 29.89 in 6.2 mi SSW 4.6 mph - N/A   Mostly Cloudy